GW3529 Weather Reports


Display with metric or nautical units.
time (UTC)temp
F
wind
direction
speed
MPH
gust
MPH
rain 1hr
in
rain 24hr
in
rain mn
in
humidity
%
barometer
mb
20260901043006 62 175 0.0 0.0 0.00 0.00 0.00 50 1012.3
20260901041505 63 175 0.0 1.0 0.00 0.00 0.00 50 1012.2
20260901040004 62 175 0.0 0.0 0.00 0.00 0.00 48 1012.1
20260901034502 64 175 0.0 0.0 0.00 0.00 0.00 48 1012.0
20260901033003 64 175 0.0 0.0 0.00 0.00 0.00 45 1011.9
20260901031501 66 176 0.0 0.0 0.00 0.00 0.00 46 1011.9
20260901030104 67 175 0.0 0.0 0.00 0.00 0.00 41 1011.8
20260901024600 68 163 0.0 0.0 0.00 0.00 0.00 42 1011.5
20260901023056 68 163 0.0 0.0 0.00 0.00 0.00 42 1011.4
20260901021555 68 162 0.0 0.0 0.00 0.00 0.00 44 1011.0
20260901020055 70 124 0.0 0.0 0.00 0.00 0.00 38 1010.9
20260901014556 71 123 0.0 0.0 0.00 0.00 0.00 37 1010.8
20260901013054 73 36 0.0 0.0 0.00 0.00 0.00 39 1010.7
20260901011554 75 30 0.0 0.0 0.00 0.00 0.00 39 1010.6
20260901010053 79 30 0.0 0.0 0.00 0.00 0.00 34 1010.4
20260901004552 79 17 0.0 0.0 0.00 0.00 0.00 31 1010.4
20260901003053 80 16 0.0 1.0 0.00 0.00 0.00 30 1010.3
20260901001558 81 5 0.0 1.0 0.00 0.00 0.00 30 1010.2
20260901000015 81 34 0.0 0.0 0.00 0.00 0.00 31 1010.2
20260831234512 81 12 0.0 1.0 0.00 0.00 0.00 29 1010.2
20260831233014 82 44 0.0 10.0 0.00 0.00 0.00 29 1010.2
20260831231510 83 48 0.0 8.0 0.00 0.00 0.00 28 1010.1
20260831230012 83 99 0.0 10.0 0.00 0.00 0.00 27 1010.2
20260831224507 83 180 0.0 10.0 0.00 0.00 0.00 28 1010.2
20260831223007 83 154 0.0 11.0 0.00 0.00 0.00 26 1010.2
20260831221521 83 242 0.0 1.0 0.00 0.00 0.00 28 1010.1
20260831220008 83 140 0.0 0.0 0.00 0.00 0.00 28 1010.2
20260831214505 85 130 0.0 1.0 0.00 0.00 0.00 26 1010.1
20260831213004 83 9 0.0 2.0 0.00 0.00 0.00 28 1010.2
20260831211504 85 325 0.0 0.0 0.00 0.00 0.00 27 1010.3
20260831210006 84 344 0.0 8.0 0.00 0.00 0.00 27 1010.4
20260831204600 84 307 0.0 11.0 0.00 0.00 0.00 28 1010.5
20260831203057 82 355 0.0 14.0 0.00 0.00 0.00 28 1010.6
20260831201558 82 348 2.0 15.0 0.00 0.00 0.00 29 1010.4
20260831200055 81 27 0.0 8.0 0.00 0.00 0.00 32 1010.4
20260831194634 81 334 3.0 13.0 0.00 0.00 0.00 31 1010.5
20260831193052 80 11 2.0 16.0 0.00 0.00 0.00 32 1010.6
20260831191551 81 355 0.0 2.0 0.00 0.00 0.00 32 1010.6
20260831190053 80 12 0.0 10.0 0.00 0.00 0.00 30 1010.6
20260831184547 80 33 0.0 9.0 0.00 0.00 0.00 31 1010.6
20260831183050 80 342 1.0 13.0 0.00 0.00 0.00 31 1010.7
20260831181543 79 47 2.0 16.0 0.00 0.00 0.00 34 1010.9
20260831180040 78 355 0.0 6.0 0.00 0.00 0.00 34 1010.9
20260831174549 78 19 0.0 8.0 0.00 0.00 0.00 33 1011.2
20260831173044 77 5 1.0 11.0 0.00 0.00 0.00 35 1011.2
20260831171543 77 34 0.0 11.0 0.00 0.00 0.00 35 1011.3
20260831170106 76 5 1.0 14.0 0.00 0.00 0.00 35 1011.2
20260831164535 77 336 4.0 16.0 0.00 0.00 0.00 35 1011.1
20260831163033 77 323 1.0 5.0 0.00 0.00 0.00 35 1011.0
20260831161527 77 13 0.0 0.0 0.00 0.00 0.00 33 1010.8
20260831160031 76 5 0.0 0.0 0.00 0.00 0.00 34 1010.7
20260831154523 76 5 0.0 2.0 0.00 0.00 0.00 34 1010.4
20260831153019 75 173 0.0 0.0 0.00 0.00 0.00 34 1010.4
20260831151522 74 172 0.0 0.0 0.00 0.00 0.00 36 1010.4
20260831150013 72 173 0.0 0.0 0.00 0.00 0.00 36 1010.3
20260831144521 70 180 0.0 0.0 0.00 0.00 0.00 39 1010.5
20260831143003 68 200 0.0 0.0 0.00 0.00 0.00 41 1010.7
20260831141600 67 200 0.0 0.0 0.00 0.00 0.00 44 1010.8
20260831140055 64 201 0.0 0.0 0.00 0.00 0.00 46 1010.7
20260831134552 60 202 0.0 0.0 0.00 0.00 0.00 51 1010.7
20260831133049 58 202 0.0 0.0 0.00 0.00 0.00 55 1010.6
20260831131547 54 202 0.0 0.0 0.00 0.00 0.00 63 1010.5
20260831130046 53 186 3.0 11.0 0.00 0.00 0.00 65 1010.5
20260831124642 54 22 0.0 0.0 0.00 0.00 0.00 61 1010.8
20260831123149 54 323 0.0 0.0 0.00 0.00 0.00 61 1010.5
20260831121546 55 193 0.0 0.0 0.00 0.00 0.00 56 1009.9
20260831120044 55 193 0.0 1.0 0.00 0.00 0.00 57 1009.7
20260831114545 56 194 0.0 0.0 0.00 0.00 0.00 56 1009.5
20260831113048 55 194 0.0 1.0 0.00 0.00 0.00 60 1009.6
20260831111542 55 194 0.0 0.0 0.00 0.00 0.00 59 1009.4
20260831110041 55 194 0.0 0.0 0.00 0.00 0.00 61 1009.4
20260831104544 54 194 0.0 0.0 0.00 0.00 0.00 63 1009.4
20260831103056 53 193 0.0 0.0 0.00 0.00 0.00 63 1009.3
20260831101541 53 193 0.0 0.0 0.00 0.00 0.00 62 1009.3
20260831100039 55 193 0.0 0.0 0.00 0.00 0.00 60 1009.3
20260831094539 55 193 0.0 0.0 0.00 0.00 0.00 58 1009.2
20260831093035 55 193 0.0 1.0 0.00 0.00 0.00 61 1009.1
20260831091534 56 193 0.0 0.0 0.00 0.00 0.00 55 1009.1
20260831090035 56 184 0.0 0.0 0.00 0.00 0.00 57 1009.1
20260831084532 57 181 0.0 0.0 0.00 0.00 0.00 56 1009.2
20260831083031 57 181 0.0 0.0 0.00 0.00 0.00 56 1009.1
20260831081530 58 181 0.0 0.0 0.00 0.00 0.00 56 1009.1
20260831080047 58 180 0.0 0.0 0.00 0.00 0.00 55 1009.3
20260831074528 58 181 0.0 3.0 0.00 0.00 0.00 56 1009.3
20260831073032 57 184 0.0 1.0 0.00 0.00 0.00 60 1009.5
20260831071527 56 185 0.0 1.0 0.00 0.00 0.00 61 1009.4
20260831070026 56 185 0.0 0.0 0.00 0.00 0.00 62 1009.3
20260831064524 56 185 0.0 0.0 0.00 0.00 0.00 63 1009.4
20260831063022 57 185 0.0 0.0 0.00 0.00 0.00 59 1009.4
20260831061520 58 185 0.0 0.0 0.00 0.00 0.00 60 1009.3
20260831060015 60 186 0.0 0.0 0.00 0.00 0.00 55 1008.9
20260831054514 60 186 0.0 0.0 0.00 0.00 0.00 55 1008.8
20260831053015 59 186 0.0 0.0 0.00 0.00 0.00 57 1008.7
20260831051512 59 186 0.0 0.0 0.00 0.00 0.00 60 1008.6
20260831050009 59 186 0.0 0.0 0.00 0.00 0.00 63 1008.5
20260831044513 60 186 0.0 1.0 0.00 0.00 0.00 59 1008.3